| time (UTC) | temp F | wind direction | speed MPH | gust MPH | rain 1hr in | rain 24hr in | rain mn in | humidity % | barometer mb |
| 20260507020048 | 66 | 272 | 1.0 | 3.0 | 0.12 | 0.25 | 0.25 | 90 | 1013.9 |
| 20260507014547 | 66 | 211 | 1.0 | 5.0 | 0.05 | 0.18 | 0.18 | 90 | 1013.2 |
| 20260507013044 | 67 | 234 | 0.0 | 1.0 | 0.03 | 0.15 | 0.15 | 90 | 1012.7 |
| 20260507011545 | 68 | 236 | 1.0 | 9.0 | 0.04 | 0.15 | 0.15 | 89 | 1012.5 |
| 20260507010045 | 68 | 252 | 2.0 | 4.0 | 0.03 | 0.13 | 0.13 | 89 | 1012.5 |
| 20260507004540 | 69 | 233 | 0.0 | 1.0 | 0.03 | 0.13 | 0.13 | 89 | 1012.4 |
| 20260507003049 | 70 | 0 | 0.0 | 1.0 | 0.02 | 0.12 | 0.12 | 87 | 1012.4 |
| 20260507001541 | 71 | 200 | 0.0 | 1.0 | 0.01 | 0.11 | 0.11 | 84 | 1012.4 |
| 20260507000042 | 72 | 0 | 0.0 | 0.0 | 0.00 | 0.10 | 0.10 | 79 | 1011.7 |
| 20260506234550 | 73 | 0 | 0.0 | 0.0 | 0.00 | 0.10 | 0.10 | 78 | 1012.0 |
| 20260506233047 | 74 | 0 | 0.0 | 0.0 | 0.00 | 0.10 | 0.10 | 77 | 1011.9 |
| 20260506231539 | 74 | 0 | 0.0 | 1.0 | 0.00 | 0.10 | 0.10 | 75 | 1011.9 |
| 20260506230046 | 75 | 0 | 0.0 | 1.0 | 0.00 | 0.10 | 0.10 | 73 | 1011.8 |
| 20260506224546 | 75 | 215 | 0.0 | 3.0 | 0.00 | 0.10 | 0.10 | 73 | 1011.9 |
| 20260506223047 | 75 | 207 | 0.0 | 4.0 | 0.00 | 0.10 | 0.10 | 74 | 1012.0 |
| 20260506221551 | 75 | 226 | 2.0 | 5.0 | 0.00 | 0.10 | 0.10 | 73 | 1011.9 |
| 20260506220049 | 74 | 0 | 1.0 | 4.0 | 0.00 | 0.10 | 0.10 | 76 | 1011.8 |
| 20260506214546 | 74 | 186 | 1.0 | 7.0 | 0.00 | 0.10 | 0.10 | 75 | 1011.9 |
| 20260506213050 | 74 | 201 | 2.0 | 7.0 | 0.00 | 0.10 | 0.10 | 75 | 1011.7 |
| 20260506211549 | 74 | 142 | 2.0 | 5.0 | 0.00 | 0.10 | 0.10 | 75 | 1011.8 |
| 20260506210051 | 74 | 188 | 2.0 | 4.0 | 0.00 | 0.10 | 0.10 | 73 | 1011.6 |
| 20260506204556 | 74 | 243 | 2.0 | 11.0 | 0.00 | 0.10 | 0.10 | 74 | 1012.0 |
| 20260506203051 | 74 | 243 | 3.0 | 9.0 | 0.00 | 0.10 | 0.10 | 73 | 1012.4 |
| 20260506201556 | 74 | 290 | 1.0 | 10.0 | 0.00 | 0.10 | 0.10 | 75 | 1012.4 |
| 20260506200107 | 72 | 109 | 5.0 | 11.0 | 0.00 | 0.10 | 0.10 | 76 | 1012.5 |
| 20260506194558 | 70 | 158 | 2.0 | 7.0 | 0.00 | 0.10 | 0.10 | 81 | 1012.4 |
| 20260506193047 | 69 | 231 | 1.0 | 7.0 | 0.00 | 0.10 | 0.10 | 81 | 1012.5 |
| 20260506191545 | 68 | 183 | 1.0 | 8.0 | 0.00 | 0.10 | 0.10 | 84 | 1012.8 |
| 20260506190046 | 67 | 235 | 2.0 | 8.0 | 0.00 | 0.10 | 0.10 | 86 | 1012.5 |
| 20260506184545 | 65 | 94 | 1.0 | 7.0 | 0.00 | 0.10 | 0.10 | 89 | 1012.8 |
| 20260506183102 | 64 | 269 | 1.0 | 7.0 | 0.02 | 0.10 | 0.10 | 90 | 1012.3 |
| 20260506181557 | 64 | 144 | 2.0 | 8.0 | 0.02 | 0.10 | 0.10 | 89 | 1012.4 |
| 20260506180041 | 64 | 140 | 2.0 | 10.0 | 0.10 | 0.10 | 0.10 | 90 | 1014.1 |
| 20260506174547 | 63 | 217 | 1.0 | 6.0 | 0.10 | 0.10 | 0.10 | 89 | 1014.5 |
| 20260506173053 | 63 | 252 | 2.0 | 5.0 | 0.08 | 0.08 | 0.08 | 86 | 1015.1 |
| 20260506171548 | 67 | 175 | 4.0 | 14.0 | 0.08 | 0.08 | 0.08 | 77 | 1015.5 |
| 20260506170050 | 72 | 244 | 4.0 | 15.0 | 0.00 | 0.00 | 0.00 | 62 | 1015.0 |
| 20260506164551 | 74 | 234 | 2.0 | 12.0 | 0.00 | 0.00 | 0.00 | 56 | 1014.1 |
| 20260506163051 | 75 | 229 | 4.0 | 9.0 | 0.00 | 0.00 | 0.00 | 53 | 1014.0 |
| 20260506161551 | 75 | 177 | 2.0 | 11.0 | 0.00 | 0.00 | 0.00 | 57 | 1014.0 |
| 20260506160117 | 74 | 201 | 4.0 | 11.0 | 0.00 | 0.00 | 0.00 | 60 | 1014.1 |
| 20260506154545 | 73 | 283 | 4.0 | 12.0 | 0.00 | 0.00 | 0.00 | 64 | 1013.8 |
| 20260506153051 | 71 | 268 | 4.0 | 9.0 | 0.00 | 0.00 | 0.00 | 68 | 1013.7 |
| 20260506151605 | 70 | 215 | 3.0 | 8.0 | 0.00 | 0.00 | 0.00 | 68 | 1013.9 |
| 20260506150051 | 69 | 227 | 2.0 | 10.0 | 0.00 | 0.00 | 0.00 | 70 | 1014.0 |
| 20260506144552 | 68 | 105 | 4.0 | 11.0 | 0.00 | 0.00 | 0.00 | 71 | 1014.1 |
| 20260506143056 | 68 | 217 | 1.0 | 9.0 | 0.00 | 0.00 | 0.00 | 71 | 1014.1 |
| 20260506141550 | 68 | 225 | 3.0 | 8.0 | 0.00 | 0.00 | 0.00 | 71 | 1014.1 |
| 20260506140106 | 68 | 159 | 2.0 | 6.0 | 0.00 | 0.00 | 0.00 | 71 | 1013.7 |
| 20260506134545 | 68 | 236 | 2.0 | 8.0 | 0.00 | 0.00 | 0.00 | 71 | 1013.8 |
| 20260506133048 | 66 | 279 | 2.0 | 7.0 | 0.00 | 0.00 | 0.00 | 73 | 1013.7 |
| 20260506131552 | 65 | 234 | 2.0 | 7.0 | 0.00 | 0.00 | 0.00 | 74 | 1013.7 |
| 20260506130049 | 65 | 130 | 2.0 | 11.0 | 0.00 | 0.00 | 0.00 | 74 | 1013.3 |
| 20260506124540 | 64 | 161 | 2.0 | 7.0 | 0.00 | 0.00 | 0.00 | 74 | 1014.0 |
| 20260506123039 | 64 | 264 | 2.0 | 7.0 | 0.00 | 0.00 | 0.00 | 74 | 1014.2 |
| 20260506121547 | 64 | 202 | 4.0 | 9.0 | 0.00 | 0.00 | 0.00 | 74 | 1014.6 |
| 20260506120044 | 63 | 279 | 2.0 | 8.0 | 0.00 | 0.00 | 0.00 | 73 | 1014.5 |
| 20260506114550 | 63 | 141 | 1.0 | 3.0 | 0.00 | 0.00 | 0.00 | 74 | 1014.1 |
| 20260506113047 | 62 | 230 | 1.0 | 6.0 | 0.00 | 0.00 | 0.00 | 74 | 1013.9 |
| 20260506111550 | 62 | 209 | 1.0 | 5.0 | 0.00 | 0.00 | 0.00 | 75 | 1013.6 |
| 20260506110056 | 62 | 237 | 1.0 | 5.0 | 0.00 | 0.00 | 0.00 | 75 | 1013.4 |
| 20260506104558 | 62 | 223 | 0.0 | 9.0 | 0.00 | 0.00 | 0.00 | 75 | 1013.3 |
| 20260506103048 | 62 | 196 | 2.0 | 6.0 | 0.00 | 0.00 | 0.00 | 75 | 1012.9 |
| 20260506101556 | 62 | 209 | 1.0 | 3.0 | 0.00 | 0.00 | 0.00 | 75 | 1013.1 |
| 20260506100045 | 62 | 148 | 1.0 | 5.0 | 0.00 | 0.00 | 0.00 | 75 | 1013.0 |
| 20260506094554 | 62 | 277 | 1.0 | 9.0 | 0.00 | 0.00 | 0.00 | 75 | 1013.1 |
| 20260506093050 | 62 | 226 | 1.0 | 8.0 | 0.00 | 0.00 | 0.00 | 74 | 1013.2 |
| 20260506091544 | 62 | 178 | 2.0 | 8.0 | 0.00 | 0.00 | 0.00 | 74 | 1013.3 |
| 20260506090049 | 62 | 294 | 1.0 | 4.0 | 0.00 | 0.00 | 0.00 | 75 | 1013.6 |
| 20260506084547 | 62 | 0 | 1.0 | 3.0 | 0.00 | 0.00 | 0.00 | 74 | 1013.8 |
| 20260506083041 | 62 | 137 | 1.0 | 6.0 | 0.00 | 0.00 | 0.00 | 74 | 1013.9 |
| 20260506081549 | 63 | 210 | 0.0 | 6.0 | 0.00 | 0.00 | 0.00 | 73 | 1013.8 |
| 20260506073050 | 64 | 132 | 1.0 | 6.0 | 0.00 | 0.00 | 0.00 | 72 | 1014.0 |
| 20260506071557 | 64 | 270 | 2.0 | 7.0 | 0.00 | 0.00 | 0.00 | 72 | 1013.7 |
| 20260506061543 | 64 | 236 | 2.0 | 10.0 | 0.00 | 0.00 | 0.00 | 71 | 1014.1 |
| 20260506044541 | 66 | 113 | 0.0 | 4.0 | 0.00 | 0.00 | 0.00 | 65 | 1014.5 |
| 20260506043040 | 66 | 141 | 1.0 | 6.0 | 0.00 | 0.00 | 0.00 | 65 | 1014.6 |
| 20260506041557 | 66 | 180 | 1.0 | 5.0 | 0.00 | 0.00 | 0.00 | 64 | 1014.4 |
| 20260506040039 | 67 | 158 | 0.0 | 6.0 | 0.00 | 0.00 | 0.00 | 63 | 1014.2 |
| 20260506034545 | 67 | 283 | 2.0 | 7.0 | 0.00 | 0.00 | 0.00 | 61 | 1014.3 |
| 20260506033042 | 68 | 242 | 2.0 | 8.0 | 0.00 | 0.00 | 0.00 | 60 | 1014.1 |
| 20260506031542 | 68 | 253 | 2.0 | 8.0 | 0.00 | 0.00 | 0.00 | 57 | 1014.1 |
| 20260506030042 | 68 | 247 | 1.0 | 8.0 | 0.00 | 0.00 | 0.00 | 55 | 1014.0 |
| 20260506024542 | 67 | 184 | 1.0 | 5.0 | 0.00 | 0.00 | 0.00 | 56 | 1014.0 |
| 20260506023046 | 65 | 0 | 0.0 | 3.0 | 0.00 | 0.00 | 0.00 | 58 | 1014.3 |
| 20260506021545 | 65 | 0 | 0.0 | 4.0 | 0.00 | 0.00 | 0.00 | 59 | 1014.3 |